Waarnemingen

Advertentie
Mijn weer
Santander/Parayas, Spanje (8021): temperatuur & dauwpunt: 12.02.2019 19:00:00 - 18.02.2019 19:00:00 (CET)Santander/Parayas, Spanje (8021): windsnelheid: 12.02.2019 19:00:00 - 18.02.2019 19:00:00 (CET)Santander/Parayas, Spanje (8021): windrichting: 12.02.2019 19:00:00 - 18.02.2019 19:00:00 (CET)Santander/Parayas, Spanje (8021): luchtdruk: 12.02.2019 19:00:00 - 18.02.2019 19:00:00 (CET)Santander/Parayas, Spanje (8021): zicht: 12.02.2019 19:00:00 - 18.02.2019 19:00:00 (CET)
Datum & Tijd tt [°C] td [°C] ff [km/u] ff [kn] dd ppp [hPa] vv [km]
18.02.2019 19:00:00 11,8 10,5 9 5 WNW 1020,5 7
18.02.2019 18:00:00 12,4 10,3 11 6 N 1019,7 -
18.02.2019 17:00:00 12,5 10,7 15 8 NW 1019,3 -
18.02.2019 16:00:00 12,8 10,5 13 7 N 1018,7 15
18.02.2019 15:00:00 13,3 11,0 11 6 N 1018,3 -
18.02.2019 14:00:00 14,0 10,8 11 6 NO 1018,3 -
18.02.2019 13:00:00 14,4 10,5 8 4 ONO 1019,0 20
18.02.2019 12:00:00 13,5 10,5 4 2 ONO 1019,4 -
18.02.2019 11:00:00 14,0 10,8 4 2 ZO 1019,5 -
18.02.2019 10:00:00 11,3 10,8 0 0 N 1019,6 15
18.02.2019 09:00:00 8,6 8,5 5 3 Z 1019,3 -
18.02.2019 08:00:00 9,0 8,7 0 0 N 1018,6 -
18.02.2019 07:00:00 8,3 7,6 5 3 ZZW 1018,6 15
18.02.2019 06:00:00 9,5 8,7 0 0 N 1018,3 -
18.02.2019 05:00:00 10,6 9,5 9 5 ZW 1017,6 -
18.02.2019 04:00:00 10,9 9,5 13 7 ZW 1017,7 -
18.02.2019 03:00:00 11,1 9,6 15 8 WZW 1017,8 -
18.02.2019 02:00:00 10,9 9,2 13 7 WZW 1017,5 -
18.02.2019 01:00:00 10,6 8,7 11 6 WZW 1017,1 -
18.02.2019 00:00:00 6,5 4,7 0 0 N 1017,1 -
17.02.2019 23:00:00 8,3 6,0 2 1 ZZO 1017,1 -
17.02.2019 22:00:00 10,8 7,6 5 3 NW 1017,1 25
17.02.2019 21:00:00 12,2 8,1 9 5 WZW 1017,2 -
17.02.2019 20:00:00 13,3 8,8 15 8 W 1017,1 -
17.02.2019 19:00:00 14,0 7,2 4 2 ZZO 1016,4 40
17.02.2019 18:00:00 17,2 7,4 8 4 O 1016,3 -
17.02.2019 17:00:00 17,8 7,7 18 10 NO 1016,7 -
17.02.2019 16:00:00 22,0 3,2 15 8 Z 1016,8 4,0
17.02.2019 15:00:00 21,9 2,4 21 11 Z 1017,5 -
17.02.2019 14:00:00 21,2 3,4 24 13 Z 1018,0 -
17.02.2019 13:00:00 20,7 2,7 22 12 Z 1019,0 40
17.02.2019 12:00:00 19,5 2,0 28 15 ZZW 1019,3 -
17.02.2019 11:00:00 18,3 1,9 28 15 ZZW 1019,3 -
17.02.2019 10:00:00 16,6 0,9 29 16 Z 1019,6 40
17.02.2019 09:00:00 15,4 0,2 29 16 Z 1019,5 -
17.02.2019 08:00:00 14,8 -0,8 24 13 Z 1019,2 -
17.02.2019 07:00:00 15,4 -0,9 26 14 ZZW 1019,1 30
17.02.2019 06:00:00 15,8 -0,8 18 10 ZZW 1018,7 -
17.02.2019 05:00:00 16,3 -0,3 24 13 ZZW 1018,3 -
17.02.2019 04:00:00 15,2 0,2 4 2 NNW 1019,0 -
17.02.2019 03:00:00 16,3 -0,4 18 10 ZZW 1019,5 -
17.02.2019 02:00:00 16,6 -0,6 24 13 Z 1019,6 -
17.02.2019 01:00:00 16,7 -0,2 22 12 ZZW 1019,6 -
17.02.2019 00:00:00 17,6 0,3 34 18 ZZW 1019,3 -
16.02.2019 23:00:00 18,0 1,0 34 18 ZZW 1019,4 -
16.02.2019 22:00:00 17,8 5,0 29 16 Z 1019,4 30
16.02.2019 21:00:00 18,0 5,5 21 11 ZZW 1019,3 -
16.02.2019 20:00:00 18,9 5,6 22 12 ZZW 1019,0 -
16.02.2019 19:00:00 19,6 5,7 18 10 ZZW 1018,9 15
16.02.2019 18:00:00 21,4 5,5 16 9 Z 1018,6 -
16.02.2019 17:00:00 22,3 5,3 26 14 Z 1018,8 -
16.02.2019 16:00:00 22,3 4,4 29 16 Z 1019,5 2,0
16.02.2019 15:00:00 22,1 4,4 22 12 Z 1020,6 -
16.02.2019 14:00:00 21,3 8,0 24 13 ZZO 1022,1 -
16.02.2019 13:00:00 15,5 6,9 15 8 ONO 1023,4 5
16.02.2019 12:00:00 13,6 7,6 11 6 ONO 1024,3 -
16.02.2019 11:00:00 11,2 8,6 4 2 O 1024,5 -
16.02.2019 10:00:00 7,0 6,9 0 0 N 1025,0 -
16.02.2019 09:00:00 3,6 3,3 5 3 O 1025,3 -
16.02.2019 08:00:00 2,4 1,8 4 2 OZO 1025,1 -
16.02.2019 07:00:00 2,7 1,8 5 3 O 1025,4 5
16.02.2019 06:00:00 3,1 2,3 0 0 N 1025,8 -
16.02.2019 05:00:00 3,6 2,6 0 0 N 1026,0 -
16.02.2019 04:00:00 4,2 3,2 0 0 N 1026,5 -
16.02.2019 03:00:00 3,7 2,5 0 0 N 1026,9 -
16.02.2019 02:00:00 4,1 2,4 0 0 N 1027,1 -
16.02.2019 01:00:00 5,2 3,5 0 0 N 1027,0 -
16.02.2019 00:00:00 5,0 3,0 0 0 N 1027,0 -
15.02.2019 23:00:00 6,3 3,8 0 0 N 1027,0 -
15.02.2019 22:00:00 7,7 3,9 4 2 ZO 1026,8 15
15.02.2019 21:00:00 10,5 5,0 4 2 WZW 1026,7 -
15.02.2019 20:00:00 10,8 5,0 4 2 WZW 1026,5 -
15.02.2019 19:00:00 12,5 5,2 8 4 W 1025,8 10
15.02.2019 18:00:00 16,9 6,6 5 3 OZO 1025,0 -
15.02.2019 17:00:00 17,5 7,8 5 3 O 1024,9 -
15.02.2019 16:00:00 17,3 7,9 13 7 ONO 1024,8 15
15.02.2019 15:00:00 18,2 8,9 15 8 ONO 1024,9 -
15.02.2019 14:00:00 22,4 3,9 11 6 ZZW 1025,2 -
15.02.2019 13:00:00 21,4 4,5 11 6 ZW 1025,8 25
15.02.2019 12:00:00 19,7 3,4 18 10 ZZW 1026,0 -
15.02.2019 11:00:00 17,6 3,1 16 9 ZW 1025,7 -
15.02.2019 10:00:00 15,5 1,3 18 10 ZW 1025,4 30
15.02.2019 09:00:00 13,6 1,2 16 9 ZW 1025,1 -
15.02.2019 08:00:00 14,0 0,3 22 12 ZZW 1024,6 -
15.02.2019 07:00:00 13,9 0,6 18 10 ZZW 1024,3 35
15.02.2019 06:00:00 13,6 0,7 18 10 ZZW 1024,2 -
15.02.2019 05:00:00 13,8 0,3 16 9 ZW 1024,2 -
15.02.2019 04:00:00 14,1 0,6 15 8 ZW 1024,0 -
15.02.2019 03:00:00 16,2 -0,3 26 14 ZZW 1023,7 -
15.02.2019 02:00:00 16,0 -0,3 21 11 ZZW 1023,6 -
15.02.2019 01:00:00 16,5 0,9 26 14 ZZW 1023,4 -
15.02.2019 00:00:00 5,3 4,4 4 2 W 1023,7 -
14.02.2019 23:00:00 5,0 4,0 0 0 N 1024,0 -
14.02.2019 22:00:00 6,4 5,3 0 0 N 1024,2 15
14.02.2019 21:00:00 7,7 6,3 0 0 N 1024,3 -
14.02.2019 20:00:00 9,2 7,1 5 3 WNW 1024,3 -
14.02.2019 19:00:00 11,6 8,6 9 5 WNW 1024,0 30
14.02.2019 18:00:00 15,0 10,2 11 6 W 1023,8 -
14.02.2019 17:00:00 20,1 8,4 8 4 NO 1023,9 -
14.02.2019 16:00:00 21,5 3,1 9 5 O 1024,1 35
14.02.2019 15:00:00 20,9 2,8 16 9 ZZO 1024,7 -
14.02.2019 14:00:00 20,8 1,3 21 11 Z 1025,4 -
14.02.2019 13:00:00 19,8 6,1 11 6 ZZO 1026,3 25
14.02.2019 12:00:00 15,8 7,2 5 3 NNO 1026,8 -
14.02.2019 11:00:00 11,7 7,5 8 4 ONO 1027,4 -
14.02.2019 10:00:00 7,6 7,5 0 0 N 1027,6 10
14.02.2019 09:00:00 2,5 2,5 0 0 N 1027,5 -
14.02.2019 08:00:00 0,6 0,6 4 2 ZZW 1027,1 -
14.02.2019 07:00:00 1,4 1,4 0 0 N 1027,1 4,0
14.02.2019 06:00:00 0,6 0,6 0 0 N 1027,3 -
14.02.2019 05:00:00 1,8 1,8 4 2 W 1027,2 -
14.02.2019 04:00:00 1,7 1,7 0 0 N 1027,6 -
14.02.2019 03:00:00 2,2 2,2 0 0 N 1028,2 -
14.02.2019 02:00:00 3,3 3,3 0 0 N 1028,3 -
14.02.2019 01:00:00 3,3 2,9 2 1 WZW 1028,7 -
14.02.2019 00:00:00 4,5 4,0 0 0 N 1028,9 -
13.02.2019 23:00:00 4,9 4,2 0 0 N 1029,1 -
13.02.2019 22:00:00 5,4 4,0 0 0 N 1029,1 12
13.02.2019 21:00:00 6,6 4,6 4 2 ZW 1029,1 -
13.02.2019 20:00:00 7,8 5,0 4 2 Z 1029,1 -
13.02.2019 19:00:00 10,8 7,7 0 0 N 1028,7 30
13.02.2019 18:00:00 13,5 8,8 4 2 NO 1028,3 -
13.02.2019 17:00:00 14,0 8,4 9 5 O 1028,4 -
13.02.2019 16:00:00 13,9 8,2 11 6 ONO 1028,2 40
13.02.2019 15:00:00 14,3 6,7 8 4 O 1028,3 -
13.02.2019 14:00:00 12,9 7,1 11 6 ONO 1029,1 -
13.02.2019 13:00:00 12,8 5,9 8 4 NNO 1029,8 40
13.02.2019 12:00:00 12,1 6,4 2 1 NO 1030,1 -
13.02.2019 11:00:00 9,6 5,9 2 1 ZZO 1030,2 -
13.02.2019 10:00:00 6,2 5,9 0 0 N 1030,3 35
13.02.2019 09:00:00 2,1 2,1 0 0 N 1030,3 -
13.02.2019 08:00:00 0,6 0,6 0 0 N 1030,1 -
13.02.2019 07:00:00 1,1 1,1 4 2 WZW 1029,9 20
13.02.2019 06:00:00 0,9 0,6 0 0 N 1029,8 -
13.02.2019 05:00:00 1,9 1,3 4 2 ZZW 1030,1 -
13.02.2019 04:00:00 2,8 2,2 4 2 Z 1030,2 -
13.02.2019 03:00:00 3,2 2,2 2 1 ZW 1030,4 -
13.02.2019 02:00:00 4,1 2,6 4 2 ZO 1030,7 -
13.02.2019 01:00:00 5,6 4,1 0 0 N 1030,8 -
13.02.2019 00:00:00 7,2 5,2 13 7 O 1031,1 -
12.02.2019 23:00:00 7,7 5,7 11 6 O 1031,5 -
12.02.2019 22:00:00 7,1 5,6 13 7 O 1031,6 50
12.02.2019 21:00:00 9,1 6,7 11 6 O 1031,5 -
12.02.2019 20:00:00 10,1 7,0 16 9 ONO 1031,3 -
12.02.2019 19:00:00 10,3 6,1 13 7 ONO 1030,9 50

tt = temperatuur
td = dauwpunt
ff = windsnelheid
dd = windrichting
ppp = luchtdruk
vv = zicht

Weerstations in de omgeving